TimeCST,TemperatureF,Dew PointF,Humidity,Sea Level PressureIn,VisibilityMPH,Wind Direction,Wind SpeedMPH,Gust SpeedMPH,PrecipitationIn,Events,Conditions,WindDirDegrees,DateUTC
12:15 AM,48.6,31.1,51,30.13,10.0,SE,4.6,-,N/A,,Clear,140,2013-03-08 06:15:00
12:35 AM,48.2,31.5,52,30.13,10.0,SE,4.6,-,N/A,,Clear,140,2013-03-08 06:35:00
12:55 AM,47.5,32.0,55,30.13,10.0,ESE,4.6,-,N/A,,Clear,120,2013-03-08 06:55:00
1:15 AM,48.2,32.0,54,30.13,10.0,ESE,5.8,-,N/A,,Clear,120,2013-03-08 07:15:00
1:35 AM,47.3,32.4,56,30.14,10.0,ESE,3.5,-,N/A,,Clear,110,2013-03-08 07:35:00
1:55 AM,46.6,32.4,58,30.14,10.0,ESE,4.6,-,N/A,,Clear,120,2013-03-08 07:55:00
2:15 AM,45.7,32.4,60,30.14,10.0,SE,4.6,-,N/A,,Clear,130,2013-03-08 08:15:00
2:35 AM,43.5,32.9,66,30.13,10.0,East,4.6,-,N/A,,Clear,90,2013-03-08 08:35:00
2:55 AM,43.3,32.2,65,30.13,10.0,East,6.9,-,N/A,,Clear,100,2013-03-08 08:55:00
3:15 AM,42.8,32.7,68,30.13,10.0,East,6.9,-,N/A,,Clear,100,2013-03-08 09:15:00
3:35 AM,43.0,32.9,68,30.13,10.0,ESE,6.9,-,N/A,,Clear,110,2013-03-08 09:35:00
3:55 AM,43.9,32.9,65,30.14,10.0,East,6.9,-,N/A,,Clear,100,2013-03-08 09:55:00
4:15 AM,44.4,32.9,64,30.14,10.0,East,8.1,-,N/A,,Clear,100,2013-03-08 10:15:00
4:35 AM,44.1,33.3,66,30.13,10.0,ESE,6.9,-,N/A,,Clear,110,2013-03-08 10:35:00
4:55 AM,45.0,33.3,64,30.14,10.0,ESE,8.1,-,N/A,,Clear,110,2013-03-08 10:55:00
5:15 AM,44.8,33.4,64,30.14,10.0,East,8.1,-,N/A,,Clear,100,2013-03-08 11:15:00
5:35 AM,43.7,33.4,67,30.15,10.0,East,9.2,-,N/A,,Clear,100,2013-03-08 11:35:00
5:55 AM,43.0,33.8,70,30.15,10.0,East,5.8,-,N/A,,Clear,90,2013-03-08 11:55:00
6:15 AM,43.7,34.0,69,30.15,10.0,East,8.1,-,N/A,,Clear,100,2013-03-08 12:15:00
6:35 AM,43.9,34.0,68,30.16,10.0,East,8.1,-,N/A,,Clear,100,2013-03-08 12:35:00
6:55 AM,44.1,33.8,67,30.17,10.0,ESE,6.9,-,N/A,,Clear,110,2013-03-08 12:55:00
7:15 AM,44.1,34.2,68,30.18,10.0,ESE,9.2,-,N/A,,Clear,110,2013-03-08 13:15:00
7:35 AM,44.4,34.3,68,30.18,10.0,ESE,9.2,-,N/A,,Clear,110,2013-03-08 13:35:00
7:55 AM,45.1,34.2,65,30.18,10.0,ESE,8.1,-,N/A,,Scattered Clouds,110,2013-03-08 13:55:00
8:15 AM,46.2,34.3,63,30.18,10.0,ESE,10.4,-,N/A,,Mostly Cloudy,110,2013-03-08 14:15:00
8:35 AM,47.5,34.2,60,30.18,10.0,ESE,10.4,-,N/A,,Mostly Cloudy,110,2013-03-08 14:35:00
8:55 AM,47.8,34.0,59,30.19,10.0,ESE,9.2,-,N/A,,Overcast,120,2013-03-08 14:55:00
9:15 AM,48.4,34.3,58,30.19,10.0,SE,13.8,18.4,N/A,,Overcast,130,2013-03-08 15:15:00
9:35 AM,49.1,34.7,58,30.18,10.0,SE,13.8,17.3,N/A,,Overcast,130,2013-03-08 15:35:00
10:15 AM,49.5,35.2,58,30.19,10.0,SE,13.8,-,N/A,,Overcast,140,2013-03-08 16:15:00
10:35 AM,49.5,35.8,59,30.20,10.0,SSE,13.8,-,N/A,,Overcast,150,2013-03-08 16:35:00
11:15 AM,49.6,36.1,60,30.19,10.0,SE,13.8,20.7,N/A,,Overcast,130,2013-03-08 17:15:00
11:35 AM,50.2,37.9,63,30.19,10.0,SE,16.1,20.7,N/A,,Overcast,140,2013-03-08 17:35:00
11:55 AM,49.5,38.5,66,30.18,10.0,SE,17.3,23.0,N/A,,Overcast,140,2013-03-08 17:55:00
12:15 PM,50.0,40.5,70,30.17,10.0,SE,16.1,24.2,N/A,,Overcast,140,2013-03-08 18:15:00
12:35 PM,50.2,42.1,74,30.16,10.0,SE,13.8,-,N/A,,Overcast,140,2013-03-08 18:35:00
12:55 PM,51.1,42.6,73,30.14,10.0,SSE,12.7,16.1,N/A,,Overcast,150,2013-03-08 18:55:00
1:15 PM,52.3,42.4,69,30.13,10.0,SE,11.5,16.1,N/A,,Overcast,140,2013-03-08 19:15:00
1:35 PM,52.7,42.1,67,30.11,10.0,SSE,11.5,-,N/A,,Overcast,150,2013-03-08 19:35:00
1:55 PM,53.2,41.4,64,30.09,10.0,SE,13.8,17.3,N/A,,Overcast,140,2013-03-08 19:55:00
2:15 PM,53.6,41.0,62,30.09,10.0,SE,13.8,18.4,N/A,,Overcast,140,2013-03-08 20:15:00
2:35 PM,54.0,40.8,61,30.08,10.0,SE,11.5,17.3,N/A,,Overcast,140,2013-03-08 20:35:00
2:55 PM,55.0,40.5,58,30.07,10.0,SE,13.8,-,N/A,,Overcast,130,2013-03-08 20:55:00
3:15 PM,55.9,40.3,56,30.07,10.0,SE,16.1,19.6,N/A,,Overcast,140,2013-03-08 21:15:00
3:35 PM,56.3,40.5,55,30.06,10.0,SE,12.7,-,N/A,,Overcast,140,2013-03-08 21:35:00
3:55 PM,57.2,40.8,54,30.06,10.0,SSE,12.7,16.1,N/A,,Overcast,150,2013-03-08 21:55:00
4:15 PM,57.4,40.6,54,30.05,10.0,SSE,10.4,-,N/A,,Overcast,150,2013-03-08 22:15:00
4:35 PM,58.1,40.5,52,30.04,10.0,SSE,13.8,18.4,N/A,,Overcast,150,2013-03-08 22:35:00
4:55 PM,58.1,40.5,52,30.04,10.0,SSE,10.4,-,N/A,,Overcast,150,2013-03-08 22:55:00
5:15 PM,58.1,40.1,51,30.05,10.0,SSE,11.5,18.4,N/A,,Overcast,150,2013-03-08 23:15:00
5:35 PM,58.1,39.7,50,30.04,10.0,SSE,10.4,-,N/A,,Overcast,150,2013-03-08 23:35:00
5:55 PM,57.7,39.0,50,30.04,10.0,SE,11.5,-,N/A,,Overcast,140,2013-03-08 23:55:00
6:15 PM,57.7,37.6,47,30.04,10.0,SSE,12.7,-,N/A,,Overcast,150,2013-03-09 00:15:00
6:35 PM,56.8,37.8,49,30.03,10.0,SE,12.7,17.3,N/A,,Light Drizzle,140,2013-03-09 00:35:00
6:55 PM,57.4,35.2,43,30.03,10.0,SSE,12.7,-,N/A,,Overcast,150,2013-03-09 00:55:00
7:15 PM,57.7,34.5,42,30.03,10.0,SSE,10.4,-,N/A,,Overcast,150,2013-03-09 01:15:00
7:35 PM,57.7,33.8,41,30.04,10.0,SSE,12.7,17.3,N/A,,Overcast,150,2013-03-09 01:35:00
7:55 PM,57.6,34.0,41,30.04,10.0,SSE,12.7,18.4,N/A,,Overcast,160,2013-03-09 01:55:00
8:15 PM,57.7,34.2,41,30.04,10.0,SSE,11.5,19.6,N/A,,Overcast,160,2013-03-09 02:15:00
8:35 PM,57.6,34.7,42,30.05,10.0,SSE,10.4,-,N/A,,Overcast,160,2013-03-09 02:35:00
8:55 PM,57.2,35.1,43,30.05,10.0,SSE,8.1,-,N/A,,Overcast,150,2013-03-09 02:55:00
9:15 PM,56.8,35.4,45,30.04,10.0,SE,10.4,-,N/A,,Overcast,140,2013-03-09 03:15:00
9:35 PM,56.8,35.6,45,30.04,10.0,SE,6.9,-,N/A,,Overcast,140,2013-03-09 03:35:00
9:55 PM,56.7,36.1,46,30.05,10.0,SSE,6.9,-,N/A,,Overcast,160,2013-03-09 03:55:00
10:15 PM,56.8,36.3,46,30.04,10.0,SE,9.2,-,N/A,,Overcast,140,2013-03-09 04:15:00
10:35 PM,56.3,36.7,48,30.03,10.0,SE,9.2,-,N/A,,Overcast,140,2013-03-09 04:35:00
10:55 PM,56.3,37.0,48,30.01,10.0,SE,9.2,-,N/A,,Overcast,140,2013-03-09 04:55:00
11:15 PM,56.7,37.0,48,29.99,10.0,SE,9.2,-,N/A,,Overcast,140,2013-03-09 05:15:00
11:35 PM,57.4,37.0,47,29.98,10.0,SE,13.8,-,N/A,,Overcast,140,2013-03-09 05:35:00
11:55 PM,58.1,36.3,44,29.98,10.0,SSE,11.5,-,N/A,,Overcast,150,2013-03-09 05:55:00